Location: Helsinki
(60.1699°N, 24.9384°E)
Time: 21:42:40
(UTC+02:00)

Transit 2A Rocket - Pass Details

Date: 23 September 2023
Orbit: 593 x 903 km, 66.7° (Epoch: 29 November)

Event Time Altitude Azimuth Distance (km) Brightness Sun altitude
Rises 23:47:36 0° 309° (NW) 3,049 9.1 -27.8°
Reaches altitude 10° 23:50:01 10° 306° (NW) 2,086 8.0 -28.0°
Enters shadow 23:53:16 42° 290° (WNW) 909 5.6 -28.1°
Maximum altitude 23:54:39 66° 225° (SW) 687 - -28.2°
Drops below altitude 10° 23:58:58 10° 144° (SE) 1,953 - -28.4°
Sets 00:01:10 0° 141° (SE) 2,837 - -28.5°
